Location: Casteau
(50.5142°N, 4.0161°E)
Time: 05:41:43
(UTC+00:00)

SKYMED 2 - Pass Details

Date: 18 September 2020
Orbit: 621 x 623 km, 97.9° (Epoch: 29 October)

Event Time Altitude Azimuth Distance (km) Brightness Sun altitude
Rises 18:19:09 0° 11° (N) 2,918 7.0 -5.4°
Reaches altitude 10° 18:21:22 10° 8° (N) 2,007 6.2 -5.8°
Maximum altitude 18:25:40 62° 289° (WNW) 705 4.2 -6.4°
Drops below altitude 10° 18:29:57 10° 208° (SSW) 1,990 6.4 -7.1°
Sets 18:32:08 0° 205° (SSW) 2,891 7.2 -7.4°
